Weather History for KOXC - February, 2014

Change the Weather History Date:

Saturday, February 22, 2014

  Actual Average Record
Temperature  
Mean Temperature 40 °F -  
Max Temperature 50 °F 37 °F 66 °F (1997)
Min Temperature 30 °F 22 °F 8 °F (2001)
Degree Days  
Heating Degree Days 25    
Moisture  
Dew Point 25 °F    
Average Humidity 60    
Maximum Humidity 80    
Minimum Humidity 30    
Precipitation  
Precipitation 0.00 in - - ()
Sea Level Pressure  
Sea Level Pressure 29.95 in    
Wind  
Wind Speed 6 mph (WSW)    
Max Wind Speed 12 mph    
Max Gust Speed 28 mph    
Visibility 10 miles    
Events      
Averages and records for this station are not official NWS values.
T = Trace of Precipitation, MM = Missing Value Source: NWS Daily Summary

Daily Weather History Graph

Daily Weather History Graph

Search for Another Location

Airport or City:

Trip Planner

Search our weather history database for the weather conditions in past years. The results will help you decide how hot, cold, wet, or windy it might be!

Date:

Astronomy

Feb. 22, 2014 Rise Set
Actual Time 6:37 AM EST 5:34 PM EST
Civil Twilight 6:09 AM EST 6:02 PM EST
Nautical Twilight 5:37 AM EST 6:35 PM EST
Astronomical Twilight 5:05 AM EST 7:07 PM EST
Moon 12:31 AM EST (2/22) 10:41 AM EST (2/22)
Length of Visible Light 11h 53m
Length of Day
10h 57m
Waning Gibbous, 50% of the Moon is Illuminated
Feb 22
Waning Gibbous
Feb 22
Last Quarter
Mar 1
New
Mar 8
First Quarter
Mar 16
Full

Hourly Weather History & Observations

Time (EST) Temp. Windchill Dew Point Humidity Pressure Visibility Wind Dir Wind Speed Gust Speed Precip Events Conditions
12:15 AM 37.4 °F 33.8 °F 30.2 °F 75% 29.90 in 10.0 mi WSW 4.6 mph - N/A   Clear
12:35 AM 37.4 °F 32.1 °F 30.2 °F 75% 29.91 in 10.0 mi WSW 6.9 mph - N/A   Clear
12:55 AM 37.4 °F 32.1 °F 28.4 °F 70% 29.91 in 10.0 mi SW 6.9 mph - N/A   Clear
1:15 AM 37.4 °F 32.1 °F 28.4 °F 70% 29.92 in 10.0 mi WSW 6.9 mph - N/A   Clear
1:35 AM 37.4 °F 32.8 °F 28.4 °F 70% 29.92 in 10.0 mi WSW 5.8 mph - N/A   Clear
1:55 AM 37.4 °F 32.8 °F 28.4 °F 70% 29.92 in 10.0 mi WSW 5.8 mph - N/A   Clear
2:15 AM 37.4 °F 33.8 °F 26.6 °F 65% 29.92 in 10.0 mi WSW 4.6 mph - N/A   Clear
2:35 AM 35.6 °F 31.7 °F 26.6 °F 70% 29.92 in 10.0 mi WSW 4.6 mph - N/A   Clear
2:55 AM 35.6 °F 30.7 °F 26.6 °F 70% 29.92 in 10.0 mi WSW 5.8 mph - N/A   Clear
3:15 AM 35.6 °F 30.7 °F 26.6 °F 70% 29.92 in 10.0 mi WSW 5.8 mph - N/A   Clear
3:35 AM 33.8 °F 29.6 °F 26.6 °F 75% 29.92 in 10.0 mi WSW 4.6 mph - N/A   Clear
3:55 AM 33.8 °F 30.8 °F 26.6 °F 75% 29.92 in 10.0 mi WSW 3.5 mph - N/A   Clear
4:15 AM 33.8 °F 29.6 °F 26.6 °F 75% 29.93 in 10.0 mi WSW 4.6 mph - N/A   Clear
4:35 AM 33.8 °F 29.6 °F 26.6 °F 75% 29.94 in 10.0 mi WSW 4.6 mph - N/A   Clear
4:55 AM 32.0 °F 27.5 °F 24.8 °F 75% 29.95 in 10.0 mi WSW 4.6 mph - N/A   Clear
5:15 AM 32.0 °F 26.4 °F 24.8 °F 75% 29.96 in 10.0 mi WSW 5.8 mph - N/A   Clear
5:35 AM 32.0 °F 26.4 °F 26.6 °F 80% 29.97 in 10.0 mi WSW 5.8 mph - N/A   Clear
5:55 AM 32.0 °F 26.4 °F 24.8 °F 75% 29.97 in 10.0 mi SW 5.8 mph - N/A   Clear
6:52 AM 30.2 °F 26.7 °F 24.8 °F 80% 29.99 in 10.0 mi West 3.5 mph - N/A   Scattered Clouds
7:52 AM 32.0 °F 27.5 °F 24.8 °F 75% 30.01 in 10.0 mi WSW 4.6 mph - N/A   Scattered Clouds
8:52 AM 37.4 °F 32.8 °F 26.6 °F 65% 30.03 in 10.0 mi WSW 5.8 mph - N/A   Scattered Clouds
9:52 AM 41.0 °F 38.0 °F 26.6 °F 57% 30.02 in 10.0 mi WSW 4.6 mph - N/A   Scattered Clouds
10:52 AM 44.6 °F 39.7 °F 24.8 °F 46% 30.00 in 10.0 mi SW 9.2 mph - N/A   Partly Cloudy
11:45 AM 46.4 °F 41.9 °F 23.0 °F 40% 30.00 in 10.0 mi WSW 9.2 mph 18.4 mph N/A   Clear
12:45 PM 46.4 °F 41.1 °F 21.2 °F 37% 29.96 in 10.0 mi SW 11.5 mph 19.6 mph N/A   Clear
1:45 PM 48.2 °F - 21.2 °F 34% 29.92 in 10.0 mi WSW 11.5 mph 20.7 mph N/A   Clear
2:45 PM 50.0 °F - 21.2 °F 32% 29.91 in 10.0 mi WSW 11.5 mph 27.6 mph N/A   Clear
3:45 PM 50.0 °F - 19.4 °F 30% 29.91 in 10.0 mi WSW 11.5 mph 23.0 mph N/A   Clear
4:45 PM 50.0 °F - 19.4 °F 30% 29.92 in 10.0 mi WSW 11.5 mph 20.7 mph N/A   Clear
5:45 PM 48.2 °F - 19.4 °F 32% 29.93 in 10.0 mi WSW 11.5 mph - N/A   Clear
6:45 PM 44.6 °F 40.7 °F 19.4 °F 37% 29.95 in 10.0 mi SW 6.9 mph - N/A   Clear
7:45 PM 44.6 °F 40.7 °F 19.4 °F 37% 29.97 in 10.0 mi SW 6.9 mph - N/A   Clear
8:45 PM 42.8 °F 38.6 °F 19.4 °F 39% 29.99 in 10.0 mi SW 6.9 mph - N/A   Clear